| time (UTC) | temp C | wind direction | speed KPH | gust KPH | rain 1hr cm | rain 24hr cm | rain mn cm | humidity % | barometer mb |
| 20260507191513 | 15 | 287 | 0.0 | 0.0 | 0.00 | 3.02 | 3.02 | 1 | 998.6 |
| 20260507170001 | 16 | 314 | 0.0 | 0.0 | 0.00 | 3.02 | 3.02 | 1 | 999.1 |
| 20260507164557 | 16 | 326 | 0.0 | 0.0 | 0.00 | 3.02 | 3.02 | 1 | 999.4 |
| 20260507163053 | 16 | 79 | 0.0 | 0.0 | 0.00 | 3.02 | 3.02 | 1 | 999.0 |
| 20260507161548 | 16 | 265 | 0.0 | 0.0 | 0.03 | 3.02 | 3.02 | 1 | 999.7 |
| 20260507160043 | 16 | 273 | 0.0 | 0.0 | 0.03 | 3.02 | 3.02 | 1 | 1000.2 |
| 20260507154538 | 16 | 269 | 0.0 | 0.0 | 0.03 | 3.02 | 3.02 | 1 | 1000.1 |
| 20260507153035 | 16 | 276 | 0.0 | 0.0 | 0.03 | 3.02 | 3.02 | 1 | 1000.2 |
| 20260507151530 | 16 | 252 | 0.0 | 0.0 | 0.00 | 3.00 | 3.00 | 1 | 1000.0 |
| 20260507150025 | 16 | 257 | 0.0 | 0.0 | 0.00 | 3.00 | 3.00 | 1 | 1000.3 |
| 20260507144521 | 16 | 277 | 0.0 | 0.0 | 0.00 | 3.00 | 3.00 | 1 | 1000.3 |
| 20260507143017 | 16 | 311 | 0.0 | 0.0 | 0.00 | 3.00 | 3.00 | 1 | 1000.5 |
| 20260507141512 | 16 | 333 | 0.0 | 0.0 | 0.05 | 3.00 | 3.00 | 1 | 1000.3 |
| 20260507140013 | 16 | 319 | 0.0 | 0.0 | 0.08 | 3.05 | 3.00 | 1 | 999.2 |
| 20260507134503 | 16 | 321 | 0.0 | 0.0 | 0.23 | 3.05 | 3.00 | 1 | 1000.5 |
| 20260507133101 | 16 | 317 | 0.0 | 0.0 | 0.23 | 3.05 | 3.00 | 1 | 1000.5 |
| 20260507131557 | 16 | 315 | 0.0 | 0.0 | 0.25 | 2.97 | 2.92 | 1 | 1000.2 |
| 20260507130049 | 16 | 289 | 0.0 | 0.0 | 0.28 | 2.97 | 2.90 | 1 | 1001.2 |
| 20260507130019 | 16 | 290 | 0.0 | 0.0 | 0.28 | 3.63 | 2.90 | 1 | 1001.4 |
| 20260507124545 | 16 | 301 | 0.0 | 0.0 | 0.15 | 3.51 | 2.77 | 1 | 1001.6 |
| 20260507123040 | 16 | 324 | 0.0 | 0.0 | 0.13 | 3.43 | 2.72 | 1 | 1001.1 |
| 20260507121535 | 16 | 302 | 0.0 | 0.0 | 0.08 | 3.40 | 2.69 | 1 | 1000.7 |
| 20260507120032 | 16 | 99 | 0.0 | 0.0 | 0.05 | 3.35 | 2.64 | 1 | 999.7 |
| 20260507114527 | 16 | 293 | 0.0 | 0.0 | 0.03 | 3.33 | 2.62 | 1 | 999.5 |
| 20260507113024 | 16 | 323 | 0.0 | 0.0 | 0.00 | 3.33 | 2.59 | 1 | 999.0 |
| 20260507111519 | 16 | 5 | 0.0 | 0.0 | 0.05 | 3.33 | 2.59 | 1 | 997.9 |
| 20260507110016 | 16 | 296 | 0.0 | 0.0 | 0.05 | 3.33 | 2.59 | 1 | 997.9 |
| 20260507104509 | 16 | 68 | 0.0 | 0.0 | 0.08 | 3.33 | 2.59 | 1 | 997.2 |
| 20260507103008 | 16 | 98 | 0.0 | 0.0 | 0.15 | 3.33 | 2.59 | 1 | 996.9 |
| 20260507101507 | 16 | 67 | 0.0 | 0.0 | 0.10 | 3.28 | 2.57 | 1 | 997.7 |
| 20260507094600 | 16 | 123 | 0.0 | 0.0 | 0.10 | 3.25 | 2.54 | 1 | 997.3 |
| 20260507093049 | 16 | 98 | 0.0 | 0.0 | 0.05 | 3.17 | 2.46 | 1 | 998.3 |
| 20260507091558 | 16 | 124 | 0.0 | 0.0 | 0.05 | 3.17 | 2.46 | 1 | 997.7 |
| 20260507090058 | 16 | 101 | 0.0 | 0.0 | 0.08 | 3.17 | 2.46 | 1 | 997.9 |
| 20260507084536 | 16 | 144 | 0.0 | 0.0 | 0.03 | 3.12 | 2.39 | 1 | 998.3 |
| 20260507083032 | 16 | 65 | 0.0 | 0.0 | 0.03 | 3.12 | 2.39 | 1 | 998.8 |
| 20260507081538 | 16 | 110 | 0.0 | 0.0 | 0.05 | 3.12 | 2.39 | 1 | 998.1 |
| 20260507080022 | 16 | 129 | 0.0 | 0.0 | 0.15 | 3.10 | 2.39 | 1 | 998.8 |
| 20260507074519 | 16 | 89 | 0.0 | 0.0 | 0.33 | 3.10 | 2.39 | 1 | 1000.0 |
| 20260507073014 | 17 | 79 | 0.0 | 0.0 | 1.17 | 3.10 | 2.39 | 1 | 1001.4 |
| 20260507071509 | 17 | 162 | 0.0 | 0.0 | 2.13 | 3.07 | 2.36 | 1 | 1002.0 |
| 20260507070009 | 17 | 217 | 0.0 | 0.0 | 2.18 | 2.97 | 2.24 | 1 | 1001.5 |
| 20260507064603 | 17 | 229 | 0.0 | 0.0 | 2.06 | 2.77 | 2.06 | 1 | 1001.3 |
| 20260507063101 | 17 | 263 | 0.0 | 0.0 | 1.19 | 1.93 | 1.19 | 1 | 1002.2 |
| 20260507061551 | 17 | 231 | 0.0 | 0.0 | 0.23 | 0.97 | 0.23 | 1 | 1001.0 |
| 20260507060046 | 21 | 255 | 0.0 | 0.0 | 0.05 | 0.79 | 0.05 | 54 | 1001.6 |
| 20260507054548 | 23 | 311 | 0.0 | 0.0 | 0.00 | 0.71 | 0.00 | 32 | 999.6 |
| 20260507053042 | 25 | 282 | 0.0 | 0.0 | 0.00 | 0.71 | 0.00 | 45 | 999.3 |
| 20260507051537 | 25 | 333 | 0.0 | 0.0 | 0.00 | 0.71 | 0.00 | 46 | 999.0 |
| 20260507050036 | 25 | 349 | 0.0 | 0.0 | 0.00 | 0.71 | 0.00 | 46 | 999.1 |
| 20260507044544 | 25 | 14 | 0.0 | 0.0 | 0.00 | 0.71 | 0.00 | 47 | 998.9 |
| 20260507043039 | 25 | 349 | 0.0 | 0.0 | 0.00 | 0.71 | 0.00 | 47 | 999.0 |
| 20260507041532 | 25 | 12 | 0.0 | 0.0 | 0.00 | 0.71 | 0.00 | 47 | 998.7 |
| 20260507040029 | 25 | 7 | 0.0 | 0.0 | 0.00 | 0.71 | 0.00 | 50 | 998.9 |
| 20260507034524 | 25 | 334 | 0.0 | 0.0 | 0.00 | 0.71 | 0.00 | 52 | 999.5 |
| 20260507033024 | 25 | 342 | 0.0 | 0.0 | 0.00 | 0.71 | 0.00 | 53 | 999.9 |
| 20260507031520 | 25 | 9 | 0.0 | 0.0 | 0.00 | 0.71 | 0.00 | 53 | 999.9 |
| 20260507030018 | 25 | 40 | 0.0 | 0.0 | 0.00 | 0.71 | 0.71 | 54 | 999.8 |
| 20260507024514 | 25 | 348 | 0.0 | 0.0 | 0.00 | 0.71 | 0.71 | 52 | 999.9 |
| 20260507023009 | 25 | 44 | 0.0 | 0.0 | 0.00 | 0.71 | 0.71 | 47 | 1000.4 |
| 20260507021504 | 25 | 16 | 0.0 | 0.0 | 0.00 | 0.71 | 0.71 | 44 | 1000.4 |
| 20260507020107 | 25 | 325 | 0.0 | 0.0 | 0.00 | 0.71 | 0.71 | 39 | 1000.6 |
| 20260507014613 | 25 | 42 | 0.0 | 0.0 | 0.00 | 0.71 | 0.71 | 38 | 1000.8 |
| 20260507013056 | 25 | 350 | 0.0 | 0.0 | 0.00 | 0.71 | 0.71 | 36 | 1000.9 |
| 20260507011555 | 24 | 68 | 0.0 | 0.0 | 0.00 | 0.71 | 0.71 | 33 | 1000.5 |
| 20260507010107 | 25 | 339 | 0.0 | 0.0 | 0.00 | 0.71 | 0.71 | 33 | 1000.2 |
| 20260507004549 | 25 | 1 | 0.0 | 0.0 | 0.00 | 0.71 | 0.71 | 32 | 999.8 |
| 20260507003044 | 25 | 39 | 0.0 | 0.0 | 0.00 | 0.71 | 0.71 | 30 | 1000.2 |
| 20260507001538 | 25 | 13 | 0.0 | 0.0 | 0.00 | 0.71 | 0.71 | 32 | 1000.9 |
| 20260507000033 | 25 | 12 | 0.0 | 0.0 | 0.00 | 0.71 | 0.71 | 39 | 1001.4 |
| 20260506234529 | 25 | 46 | 0.0 | 0.0 | 0.00 | 0.71 | 0.71 | 41 | 1002.0 |
| 20260506233025 | 25 | 92 | 0.0 | 0.0 | 0.00 | 0.71 | 0.71 | 42 | 1002.2 |
| 20260506231520 | 25 | 11 | 0.0 | 0.0 | 0.00 | 0.71 | 0.71 | 42 | 1002.5 |
| 20260506230015 | 25 | 75 | 0.0 | 0.0 | 0.00 | 0.89 | 0.71 | 42 | 1002.6 |
| 20260506224512 | 25 | 39 | 0.0 | 0.0 | 0.00 | 0.89 | 0.71 | 43 | 1003.3 |
| 20260506223007 | 25 | 24 | 0.0 | 0.0 | 0.00 | 0.89 | 0.71 | 41 | 1003.6 |
| 20260506221501 | 25 | 39 | 0.0 | 0.0 | 0.00 | 0.89 | 0.71 | 43 | 1003.5 |
| 20260506220057 | 26 | 53 | 0.0 | 0.0 | 0.00 | 0.89 | 0.71 | 48 | 1003.4 |
| 20260506214553 | 26 | 34 | 0.0 | 0.0 | 0.00 | 0.89 | 0.71 | 52 | 1003.4 |
| 20260506213048 | 26 | 147 | 0.0 | 0.0 | 0.00 | 0.89 | 0.71 | 56 | 1003.5 |
| 20260506211543 | 26 | 58 | 0.0 | 0.0 | 0.00 | 0.89 | 0.71 | 60 | 1003.5 |
| 20260506210141 | 27 | 56 | 0.0 | 0.0 | 0.00 | 0.89 | 0.71 | 62 | 1003.4 |
| 20260506204534 | 27 | 30 | 0.0 | 0.0 | 0.00 | 0.89 | 0.71 | 62 | 1003.4 |
| 20260506203030 | 28 | 37 | 0.0 | 0.0 | 0.00 | 0.89 | 0.71 | 62 | 1003.5 |
| 20260506201540 | 28 | 37 | 0.0 | 0.0 | 0.00 | 0.89 | 0.71 | 62 | 1003.6 |
| 20260506200026 | 29 | 49 | 0.0 | 0.0 | 0.00 | 0.89 | 0.71 | 61 | 1003.6 |
| 20260506194516 | 29 | 285 | 0.0 | 0.0 | 0.00 | 0.89 | 0.71 | 60 | 1003.7 |
| 20260506193014 | 30 | 105 | 0.0 | 0.0 | 0.00 | 0.89 | 0.71 | 60 | 1003.9 |